SCP
0 0 0 0 0 0 0 0 0 0 0 0 0 0 0 0 0 0 0 0 0 0 0 0 0 0 0 0 0 0 0 0 0 0 0 0 0 0 0 0 0 0 0 0
0 0 0 0 0 0 0 0 0 0 0 0 0 0 0 0 0 0 0 0 0 0 0 0 0 0 0 0 0 0 0 0 0 0 0 0 0 0 0 0 0 0 0 0
0 0 0 0 0 0 0 0 0 0 0 0 0 0 0 0 0 0 0 0 0 0 0 0 0 0 0 0 0 0 0 0 0 0 0 0 0 0 0 0 0 0 0 0
0 0 0 0 0 0 0 0 0 0 0 0 0 0 0 0 0 0 0 0 0 0 0 0 0 0 0 0 0 0 0 0 0 0 0 0 0 0 0 0 0 0 0 0
0 0 0 0 0 0 0 0 0 0 0 0 0 0 0 0 0 0 0 0 0 0 0 0 0 0 0 0 0 0 0 0 0 0 0 0 0 0 0 0 0 0 -0 0
0 0 0 0 0 0 0 0 0 0 0 0 0 0 0 0 0 0 0 0 0 0 0 0 0 0 0 0 0 0 0 0 0 0 0 0 -0 0 -0 0 0 0 0 0
0 0 0 0 0 0 0 0 0 0 0 0 0 0 0 0 0 0 0 0 0 0 0 0 0 0 0 0 0 0 0 0 0 0 0 0 0 0 0 0 0 0 0 0
0 0 0 0 0 0 0 0 0 0 0 0 0 0 0 0 0 0 0 0 0 0 0 0 0 0 0 0 0 0 0 0 0 0 0 0 -0 0 0 0 0 -0 -0 0
0 0 0 0 0 0 0 0 0 0 0 0 0 0 0 0 0 0 0 0 0 0 0 0 0 0 0 0 0 0 0 0 0 0 0 0 0 0 0 0 0 0 -0 0
0 0 0 0 0 0 0 0 0 0 0 0 0 0 0 0 0 0 0 0 0 0 0 0 0 0 0 0 0 0 0 0 0 0 0 0 0 0 0 0 0 0 0 0
0 0 0 0 0 0 0 0 0 0 0 0 0 0 0 0 0 0 0 0 0 0 0 0 0 0 0 0 0 0 0 0 0 0 0 0 0 0 0 0 0 0 0 0
0 0 0 0 0 0 0 0 0 0 0 0 0 0 0 0 0 0 0 0 0 0 0 0 0 0 0 0 0 0 0 0 0 0 0 0 0 0 0 0 0 0 0 0
0 0 0 0 0 0 0 0 0 0 0 0 0 0 0 0 0 0 0 0 0 0 0 0 0 0 0 0 0 0 0 0 0 0 0 0 0 -0 -0 0 0 0 0 0
0 0 0 0 0 0 0 0 0 0 0 0 0 0 0 0 0 0 0 0 0 0 0 0 0 0 0 0 0 0 0 0 0 0 0 0 0 0 0 0 0 0 0 0
0 0 0 0 0 0 0 0 0 0 0 0 0 0 0 0 0 0 0 0 0 0 0 0 0 0 0 0 0 0 0 0 0 0 0 0 0 0 0 0 0 0 0 0
0 0 0 0 0 0 0 0 0 0 0 0 0 0 0 0 0 0 0 0 0 0 0 0 0 0 0 0 0 0 0 0 0 0 0 0 0 0 0 0 0 0 0 0
0 0 0 0 0 0 0 0 0 0 0 0 0 0 0 0 0 0 0 0 0 0 0 0 0 0 0 0 0 0 0 0 0 0 0 0 0 0 0 0 0 0 0 0
0 0 0 0 0 0 0 0 0 0 0 0 0 0 0 0 0 0 0 0 0 0 0 0 0 0 0 0 0 0 0 0 0 0 0 0 0 0 0 0 0 0 0 0
0 0 0 0 0 0 0 0 0 0 0 0 0 0 0 0 0 0 0 0 0 0 0 0 0 0 0 0 0 0 0 0 0 0 0 0 0 0 0 -0 0 0 0 0
0 0 0 0 0 0 0 0 0 0 0 0 0 0 0 0 0 0 0 0 0 0 0 0 0 0 0 0 0 0 0 0 0 0 0 0 0 0 0 -0 -0 0 0 0
0 0 0 0 0 0 0 0 0 0 0 0 0 0 0 0 0 0 0 0 0 0 0 0 0 0 0 0 0 0 0 0 0 0 0 0 0 0 0 0 -0 -0 0 0
0 0 0 0 0 0 0 0 0 0 0 0 0 0 0 0 0 0 0 0 0 0 0 0 0 0 0 0 0 0 0 0 0 0 0 0 0 0 0 0 0 0 0 0
0 0 0 0 0 0 0 0 0 0 0 0 0 0 0 0 0 0 0 0 0 0 0 0 0 0 0 0 0 0 0 0 0 0 0 0 0 0 0 0 0 0 0 0
0 0 0 0 0 0 0 0 0 0 0 0 0 0 0 0 0 0 0 0 0 0 0 0 0 0 0 0 0 0 0 0 0 0 0 0 0 0 0 0 0 0 0 0
0 0 0 0 0 0 0 0 0 0 0 0 0 0 0 0 0 0 0 0 0 0 0 0 0 0 0 0 0 0 0 0 0 0 0 0 0 0 0 0 0 0 0 0
0 0 0 0 0 0 0 0 0 0 0 0 0 0 0 0 0 0 0 0 0 0 0 0 0 0 0 0 0 0 0 0 0 0 0 0 0 0 0 0 0 0 0 0
0 0 0 0 0 0 0 0 0 0 0 0 0 0 0 0 0 0 0 0 -0 -0 0 0 0 0 0 0 0 0 0 0 0 0 0 0 0 0 0 0 0 0 0 0
Wind_Speed_500mb
57 56 73 76 67 58 52 35 7 28 47 14 5 8 14 15 13 11 5 3 11 12 10 7 7 8 3 13 15 7 6 4 5 2 2 5 4 5 6 4 5 2 2 12
41 67 71 77 76 77 70 25 14 36 57 11 6 3 8 11 12 11 9 7 6 2 12 3 6 5 2 13 10 6 11 3 2 2 1 3 10 10 8 5 0 12 6 6
36 34 73 74 94 86 80 35 6 12 35 13 11 11 8 11 12 10 8 10 11 7 9 6 2 7 3 10 5 1 9 2 7 6 3 8 8 12 22 11 6 9 15 13
38 34 36 81 87 100 91 40 14 25 13 14 8 13 23 13 14 7 16 2 10 19 10 7 9 4 5 6 8 6 2 7 4 6 7 4 6 10 25 23 14 14 1 14
37 38 33 37 92 84 90 28 16 18 20 36 30 16 21 33 11 19 14 11 20 21 19 19 21 16 9 11 14 13 8 3 2 8 2 8 12 23 24 30 14 24 24 41
35 38 35 34 46 108 43 50 47 18 27 17 26 30 19 26 19 11 10 18 14 17 11 24 21 12 12 13 15 21 15 11 7 8 4 8 14 20 34 18 18 24 21 23
36 35 41 35 33 122 60 66 46 21 7 19 22 24 47 26 34 17 10 28 13 21 33 37 31 28 19 16 6 11 12 8 2 5 3 8 8 5 14 31 15 37 22 19
53 41 31 49 49 30 96 56 47 28 6 30 10 25 15 39 28 12 21 21 21 55 28 8 8 4 5 3 1 6 1 7 5 6 6 14 10 10 16 19 16 53 51 38
33 57 44 27 53 63 43 44 31 33 11 24 43 23 33 12 13 8 8 15 66 37 10 6 13 13 13 11 5 2 6 4 4 6 8 11 6 6 13 6 11 11 59 35
26 27 50 46 31 37 46 44 22 36 22 24 56 23 30 27 19 9 18 26 22 17 7 7 9 10 4 15 19 14 10 5 14 7 10 15 15 17 21 3 8 2 31 33
26 23 26 45 46 28 33 40 48 32 5 15 56 67 43 37 52 13 28 16 7 4 9 10 9 8 16 9 11 16 20 20 10 7 8 19 30 17 15 3 7 7 18 40
26 24 22 26 44 51 36 35 29 36 26 11 19 52 58 72 74 57 64 15 25 28 8 7 6 7 8 10 12 4 11 14 16 23 18 2 59 17 41 3 9 7 13 28
27 26 25 26 28 51 48 42 42 48 25 13 22 22 28 51 58 68 30 18 34 32 22 15 5 8 8 12 13 9 11 14 5 6 19 35 40 51 52 25 39 26 15 20
29 26 25 26 26 44 55 46 44 52 16 11 17 22 21 25 45 58 77 59 59 48 39 12 6 6 22 8 3 11 9 25 13 10 23 21 36 45 56 61 59 56 39 33
24 25 20 21 24 30 56 45 53 50 42 17 10 29 37 35 26 38 48 51 65 45 19 6 8 11 9 2 1 10 23 15 13 12 30 26 44 44 43 46 50 46 54 53
29 24 22 17 29 24 26 34 57 66 35 11 5 8 22 33 32 35 40 52 57 36 20 11 11 14 22 9 9 16 57 54 59 32 52 41 42 42 43 38 30 35 43 47
24 22 23 21 27 14 31 15 14 57 59 10 6 5 16 32 35 33 31 46 25 19 19 19 15 17 23 4 24 13 34 55 72 61 51 47 58 65 50 50 45 41 44 57
14 18 22 26 29 26 36 21 17 31 41 14 5 4 9 33 17 10 27 26 26 20 14 13 9 13 8 12 5 29 51 42 43 49 58 60 59 63 65 58 46 41 51 63
7 15 19 26 30 13 33 51 27 50 24 11 11 14 10 32 13 16 13 15 6 17 7 10 22 7 13 7 12 27 27 31 43 56 68 71 70 70 69 71 61 51 46 56
13 11 4 7 14 18 24 25 21 15 24 16 6 16 9 27 14 9 16 13 7 8 8 22 8 8 12 11 12 19 21 23 29 38 46 45 53 51 54 56 53 47 54 54
11 10 11 10 28 23 15 13 18 16 7 18 13 26 10 17 8 7 13 8 8 9 10 14 9 9 7 7 15 19 22 21 19 22 27 30 35 41 43 39 37 32 31 45
15 9 12 15 16 12 8 6 6 8 10 13 14 15 17 19 15 8 14 10 7 11 20 9 8 4 5 7 7 14 20 23 23 26 27 26 27 32 34 33 26 27 30 26
18 5 8 9 7 7 9 10 5 5 8 14 13 8 18 15 18 7 6 11 12 27 10 7 2 6 9 8 7 2 7 9 16 20 24 27 27 30 30 29 29 27 27 31
13 12 9 8 6 7 7 6 6 5 9 20 20 9 6 12 9 5 10 6 9 12 17 12 4 7 9 9 8 5 6 6 3 5 14 20 23 23 26 29 28 27 30 35
7 7 7 9 4 4 13 12 12 9 11 18 11 4 9 4 6 3 5 10 7 3 5 4 7 8 11 11 9 8 11 12 11 8 7 8 10 12 15 20 24 25 27 31
9 7 4 4 1 1 6 9 12 10 7 13 4 4 8 3 3 6 3 3 2 5 5 12 9 11 13 13 12 14 16 16 16 13 12 12 11 9 8 9 12 14 16 19
11 5 8 9 5 10 11 12 7 6 6 3 1 4 5 5 6 5 4 4 6 23 25 18 14 11 12 13 12 13 16 15 14 14 13 13 15 13 10 7 11 13 14 13
Wind_Direction_500mb
234 229 224 214 212 202 197 184 206 184 174 171 246 178 186 157 173 206 263 109 108 133 131 236 227 237 234 161 161 163 171 121 161 211 24 337 339 142 196 226 205 51 6 271
239 231 224 216 208 207 185 176 184 182 176 182 222 238 128 177 138 195 196 150 116 128 129 242 212 225 28 161 172 171 182 218 159 214 236 265 233 185 172 114 257 207 192 249
235 234 224 229 209 213 195 170 156 174 203 233 176 147 177 184 203 164 182 127 96 119 105 159 232 229 148 189 203 200 154 167 228 253 161 112 186 198 194 187 199 168 236 298
227 219 227 217 228 208 191 180 200 180 188 224 215 194 165 147 175 226 177 14 189 151 123 140 196 177 151 162 207 152 204 251 198 268 253 238 244 192 187 200 204 219 336 230
234 231 214 210 217 223 187 175 160 174 166 165 180 190 199 187 163 155 215 202 180 182 164 181 188 152 179 208 172 174 173 226 148 272 288 236 259 238 206 219 228 266 277 286
223 229 227 207 207 211 198 194 202 194 170 159 183 209 180 203 163 199 158 172 150 200 180 126 107 136 133 164 170 185 172 156 176 263 333 288 266 227 199 189 208 208 218 233
229 227 231 220 181 207 207 204 203 186 215 194 194 188 202 196 201 203 142 165 173 149 150 111 86 76 91 124 95 170 164 169 171 283 293 247 246 148 192 210 228 212 247 238
235 224 216 222 223 225 215 207 196 188 189 199 198 199 179 187 169 136 158 174 212 161 132 95 107 47 41 210 337 189 209 152 172 236 225 309 261 196 171 187 267 210 220 229
244 233 223 209 218 231 212 225 217 213 182 212 196 180 173 155 161 112 158 161 152 158 113 142 177 188 173 192 188 23 131 53 199 152 233 232 260 167 189 193 279 200 203 212
251 247 230 222 203 213 236 233 206 209 211 215 191 182 201 191 149 127 134 146 180 164 144 166 177 188 156 171 176 171 153 178 211 200 250 283 252 154 148 188 261 289 196 189
247 249 242 233 221 199 202 228 233 233 282 203 202 205 194 176 181 160 146 117 180 154 195 179 182 176 204 170 158 179 167 161 182 146 207 262 152 122 192 253 321 285 203 196
242 256 257 246 234 222 214 222 213 221 228 243 213 207 209 213 210 185 167 186 157 171 167 190 156 171 170 160 204 156 217 198 179 188 204 190 186 232 217 261 299 284 233 210
236 250 257 257 247 213 211 227 216 203 218 243 252 238 206 197 205 205 162 198 182 182 167 149 180 202 157 173 222 185 233 186 214 129 236 234 234 237 245 244 254 266 274 239
225 238 252 255 256 216 207 221 202 200 178 208 231 223 247 229 208 204 205 213 190 194 173 163 164 204 206 200 149 201 159 148 169 268 283 280 271 250 258 253 254 254 254 248
212 235 243 258 256 221 210 219 216 197 194 179 194 197 211 236 237 222 212 214 188 170 159 165 197 169 147 204 352 217 186 175 184 210 215 214 244 262 289 264 256 261 253 240
221 234 236 261 219 184 209 203 221 226 200 159 161 228 197 196 203 213 217 207 190 184 161 180 206 186 187 189 228 209 228 224 230 228 245 251 249 277 276 276 267 274 268 261
231 234 236 253 260 204 216 185 158 213 220 190 142 228 202 197 182 184 191 203 190 188 178 192 179 190 190 250 249 176 218 229 238 238 243 256 261 268 269 272 274 273 279 279
222 229 231 253 259 258 212 181 145 180 185 184 194 157 179 182 163 158 171 175 181 195 195 169 175 148 194 244 233 232 231 231 243 236 242 252 259 264 263 270 271 273 277 275
252 237 239 276 249 215 208 211 216 175 191 195 187 163 186 174 155 136 140 157 151 181 196 192 164 157 217 228 195 187 198 222 231 239 248 251 259 265 267 273 276 272 269 269
237 253 229 231 203 189 185 186 206 200 207 220 210 165 161 167 148 144 135 176 170 180 208 158 211 240 193 188 201 210 224 232 244 252 252 253 258 266 270 278 283 273 253 262
209 189 225 264 168 172 210 204 179 184 193 193 176 183 147 178 152 129 192 167 169 192 188 185 203 242 139 261 235 238 242 238 248 255 253 260 262 273 277 281 287 293 275 257
183 206 261 217 195 203 202 210 160 212 200 173 161 163 144 158 158 154 180 184 160 219 147 189 222 108 5 347 288 270 256 246 245 257 265 268 269 275 281 282 279 277 277 264
215 241 236 227 178 179 196 194 209 180 165 167 160 141 152 149 184 156 172 184 200 131 174 214 68 91 20 15 19 358 303 273 257 259 269 274 275 276 280 277 272 267 263 258
199 207 239 213 167 223 200 191 144 152 153 157 172 146 164 159 174 160 187 183 138 200 186 198 103 92 55 33 32 42 42 55 54 279 278 282 287 287 285 282 278 269 257 250
227 206 231 217 242 144 163 146 129 133 168 158 150 176 161 176 167 217 156 169 199 13 120 85 118 101 55 53 57 50 59 59 54 47 17 346 320 304 294 288 288 283 276 271
218 213 188 223 324 154 137 126 106 112 130 120 134 174 166 140 115 89 73 61 94 122 106 112 96 73 54 59 50 46 51 54 53 45 36 23 12 8 356 328 315 306 302 299
180 204 184 213 252 118 115 116 100 133 119 93 77 52 43 118 98 113 46 112 115 140 135 132 119 79 63 60 61 57 56 50 52 47 40 34 26 18 357 322 342 341 336 330
Wind_Speed_850mb
57 56 73 76 67 58 52 35 7 28 47 14 5 8 14 15 13 11 5 3 11 12 10 7 7 8 3 13 15 7 6 4 5 2 2 5 4 5 6 4 5 2 2 12
41 67 71 77 76 77 70 25 14 36 57 11 6 3 8 11 12 11 9 7 6 2 12 3 6 5 2 13 10 6 11 3 2 2 1 3 10 10 8 5 0 12 6 6
36 34 73 74 94 86 80 35 6 12 35 13 11 11 8 11 12 10 8 10 11 7 9 6 2 7 3 10 5 1 9 2 7 6 3 8 8 12 22 11 6 9 15 13
38 34 36 81 87 100 91 40 14 25 13 14 8 13 23 13 14 7 16 2 10 19 10 7 9 4 5 6 8 6 2 7 4 6 7 4 6 10 25 23 14 14 1 14
37 38 33 37 92 84 90 28 16 18 20 36 30 16 21 33 11 19 14 11 20 21 19 19 21 16 9 11 14 13 8 3 2 8 2 8 12 23 24 30 14 24 24 41
35 38 35 34 46 108 43 50 47 18 27 17 26 30 19 26 19 11 10 18 14 17 11 24 21 12 12 13 15 21 15 11 7 8 4 8 14 20 34 18 18 24 21 23
36 35 41 35 33 122 60 66 46 21 7 19 22 24 47 26 34 17 10 28 13 21 33 37 31 28 19 16 6 11 12 8 2 5 3 8 8 5 14 31 15 37 22 19
53 41 31 49 49 30 96 56 47 28 6 30 10 25 15 39 28 12 21 21 21 55 28 8 8 4 5 3 1 6 1 7 5 6 6 14 10 10 16 19 16 53 51 38
33 57 44 27 53 63 43 44 31 33 11 24 43 23 33 12 13 8 8 15 66 37 10 6 13 13 13 11 5 2 6 4 4 6 8 11 6 6 13 6 11 11 59 35
26 27 50 46 31 37 46 44 22 36 22 24 56 23 30 27 19 9 18 26 22 17 7 7 9 10 4 15 19 14 10 5 14 7 10 15 15 17 21 3 8 2 31 33
26 23 26 45 46 28 33 40 48 32 5 15 56 67 43 37 52 13 28 16 7 4 9 10 9 8 16 9 11 16 20 20 10 7 8 19 30 17 15 3 7 7 18 40
26 24 22 26 44 51 36 35 29 36 26 11 19 52 58 72 74 57 64 15 25 28 8 7 6 7 8 10 12 4 11 14 16 23 18 2 59 17 41 3 9 7 13 28
27 26 25 26 28 51 48 42 42 48 25 13 22 22 28 51 58 68 30 18 34 32 22 15 5 8 8 12 13 9 11 14 5 6 19 35 40 51 52 25 39 26 15 20
29 26 25 26 26 44 55 46 44 52 16 11 17 22 21 25 45 58 77 59 59 48 39 12 6 6 22 8 3 11 9 25 13 10 23 21 36 45 56 61 59 56 39 33
24 25 20 21 24 30 56 45 53 50 42 17 10 29 37 35 26 38 48 51 65 45 19 6 8 11 9 2 1 10 23 15 13 12 30 26 44 44 43 46 50 46 54 53
29 24 22 17 29 24 26 34 57 66 35 11 5 8 22 33 32 35 40 52 57 36 20 11 11 14 22 9 9 16 57 54 59 32 52 41 42 42 43 38 30 35 43 47
24 22 23 21 27 14 31 15 14 57 59 10 6 5 16 32 35 33 31 46 25 19 19 19 15 17 23 4 24 13 34 55 72 61 51 47 58 65 50 50 45 41 44 57
14 18 22 26 29 26 36 21 17 31 41 14 5 4 9 33 17 10 27 26 26 20 14 13 9 13 8 12 5 29 51 42 43 49 58 60 59 63 65 58 46 41 51 63
7 15 19 26 30 13 33 51 27 50 24 11 11 14 10 32 13 16 13 15 6 17 7 10 22 7 13 7 12 27 27 31 43 56 68 71 70 70 69 71 61 51 46 56
13 11 4 7 14 18 24 25 21 15 24 16 6 16 9 27 14 9 16 13 7 8 8 22 8 8 12 11 12 19 21 23 29 38 46 45 53 51 54 56 53 47 54 54
11 10 11 10 28 23 15 13 18 16 7 18 13 26 10 17 8 7 13 8 8 9 10 14 9 9 7 7 15 19 22 21 19 22 27 30 35 41 43 39 37 32 31 45
15 9 12 15 16 12 8 6 6 8 10 13 14 15 17 19 15 8 14 10 7 11 20 9 8 4 5 7 7 14 20 23 23 26 27 26 27 32 34 33 26 27 30 26
18 5 8 9 7 7 9 10 5 5 8 14 13 8 18 15 18 7 6 11 12 27 10 7 2 6 9 8 7 2 7 9 16 20 24 27 27 30 30 29 29 27 27 31
13 12 9 8 6 7 7 6 6 5 9 20 20 9 6 12 9 5 10 6 9 12 17 12 4 7 9 9 8 5 6 6 3 5 14 20 23 23 26 29 28 27 30 35
7 7 7 9 4 4 13 12 12 9 11 18 11 4 9 4 6 3 5 10 7 3 5 4 7 8 11 11 9 8 11 12 11 8 7 8 10 12 15 20 24 25 27 31
9 7 4 4 1 1 6 9 12 10 7 13 4 4 8 3 3 6 3 3 2 5 5 12 9 11 13 13 12 14 16 16 16 13 12 12 11 9 8 9 12 14 16 19
11 5 8 9 5 10 11 12 7 6 6 3 1 4 5 5 6 5 4 4 6 23 25 18 14 11 12 13 12 13 16 15 14 14 13 13 15 13 10 7 11 13 14 13
Wind_Direction_850mb
234 229 224 214 212 202 197 184 206 184 174 171 246 178 186 157 173 206 263 109 108 133 131 236 227 237 234 161 161 163 171 121 161 211 24 337 339 142 196 226 205 51 6 271
239 231 224 216 208 207 185 176 184 182 176 182 222 238 128 177 138 195 196 150 116 128 129 242 212 225 28 161 172 171 182 218 159 214 236 265 233 185 172 114 257 207 192 249
235 234 224 229 209 213 195 170 156 174 203 233 176 147 177 184 203 164 182 127 96 119 105 159 232 229 148 189 203 200 154 167 228 253 161 112 186 198 194 187 199 168 236 298
227 219 227 217 228 208 191 180 200 180 188 224 215 194 165 147 175 226 177 14 189 151 123 140 196 177 151 162 207 152 204 251 198 268 253 238 244 192 187 200 204 219 336 230
234 231 214 210 217 223 187 175 160 174 166 165 180 190 199 187 163 155 215 202 180 182 164 181 188 152 179 208 172 174 173 226 148 272 288 236 259 238 206 219 228 266 277 286
223 229 227 207 207 211 198 194 202 194 170 159 183 209 180 203 163 199 158 172 150 200 180 126 107 136 133 164 170 185 172 156 176 263 333 288 266 227 199 189 208 208 218 233
229 227 231 220 181 207 207 204 203 186 215 194 194 188 202 196 201 203 142 165 173 149 150 111 86 76 91 124 95 170 164 169 171 283 293 247 246 148 192 210 228 212 247 238
235 224 216 222 223 225 215 207 196 188 189 199 198 199 179 187 169 136 158 174 212 161 132 95 107 47 41 210 337 189 209 152 172 236 225 309 261 196 171 187 267 210 220 229
244 233 223 209 218 231 212 225 217 213 182 212 196 180 173 155 161 112 158 161 152 158 113 142 177 188 173 192 188 23 131 53 199 152 233 232 260 167 189 193 279 200 203 212
251 247 230 222 203 213 236 233 206 209 211 215 191 182 201 191 149 127 134 146 180 164 144 166 177 188 156 171 176 171 153 178 211 200 250 283 252 154 148 188 261 289 196 189
247 249 242 233 221 199 202 228 233 233 282 203 202 205 194 176 181 160 146 117 180 154 195 179 182 176 204 170 158 179 167 161 182 146 207 262 152 122 192 253 321 285 203 196
242 256 257 246 234 222 214 222 213 221 228 243 213 207 209 213 210 185 167 186 157 171 167 190 156 171 170 160 204 156 217 198 179 188 204 190 186 232 217 261 299 284 233 210
236 250 257 257 247 213 211 227 216 203 218 243 252 238 206 197 205 205 162 198 182 182 167 149 180 202 157 173 222 185 233 186 214 129 236 234 234 237 245 244 254 266 274 239
225 238 252 255 256 216 207 221 202 200 178 208 231 223 247 229 208 204 205 213 190 194 173 163 164 204 206 200 149 201 159 148 169 268 283 280 271 250 258 253 254 254 254 248
212 235 243 258 256 221 210 219 216 197 194 179 194 197 211 236 237 222 212 214 188 170 159 165 197 169 147 204 352 217 186 175 184 210 215 214 244 262 289 264 256 261 253 240
221 234 236 261 219 184 209 203 221 226 200 159 161 228 197 196 203 213 217 207 190 184 161 180 206 186 187 189 228 209 228 224 230 228 245 251 249 277 276 276 267 274 268 261
231 234 236 253 260 204 216 185 158 213 220 190 142 228 202 197 182 184 191 203 190 188 178 192 179 190 190 250 249 176 218 229 238 238 243 256 261 268 269 272 274 273 279 279
222 229 231 253 259 258 212 181 145 180 185 184 194 157 179 182 163 158 171 175 181 195 195 169 175 148 194 244 233 232 231 231 243 236 242 252 259 264 263 270 271 273 277 275
252 237 239 276 249 215 208 211 216 175 191 195 187 163 186 174 155 136 140 157 151 181 196 192 164 157 217 228 195 187 198 222 231 239 248 251 259 265 267 273 276 272 269 269
237 253 229 231 203 189 185 186 206 200 207 220 210 165 161 167 148 144 135 176 170 180 208 158 211 240 193 188 201 210 224 232 244 252 252 253 258 266 270 278 283 273 253 262
209 189 225 264 168 172 210 204 179 184 193 193 176 183 147 178 152 129 192 167 169 192 188 185 203 242 139 261 235 238 242 238 248 255 253 260 262 273 277 281 287 293 275 257
183 206 261 217 195 203 202 210 160 212 200 173 161 163 144 158 158 154 180 184 160 219 147 189 222 108 5 347 288 270 256 246 245 257 265 268 269 275 281 282 279 277 277 264
215 241 236 227 178 179 196 194 209 180 165 167 160 141 152 149 184 156 172 184 200 131 174 214 68 91 20 15 19 358 303 273 257 259 269 274 275 276 280 277 272 267 263 258
199 207 239 213 167 223 200 191 144 152 153 157 172 146 164 159 174 160 187 183 138 200 186 198 103 92 55 33 32 42 42 55 54 279 278 282 287 287 285 282 278 269 257 250
227 206 231 217 242 144 163 146 129 133 168 158 150 176 161 176 167 217 156 169 199 13 120 85 118 101 55 53 57 50 59 59 54 47 17 346 320 304 294 288 288 283 276 271
218 213 188 223 324 154 137 126 106 112 130 120 134 174 166 140 115 89 73 61 94 122 106 112 96 73 54 59 50 46 51 54 53 45 36 23 12 8 356 328 315 306 302 299
180 204 184 213 252 118 115 116 100 133 119 93 77 52 43 118 98 113 46 112 115 140 135 132 119 79 63 60 61 57 56 50 52 47 40 34 26 18 357 322 342 341 336 330